#timestamp,LO_Frequency,Hit,StdDev 
1700352015.3,286046998.6,N
1700352035.2,286047000.7,N
1700352055.0,286047000.3,N
1700352055.9,286047000.3,N
1700352075.7,286047000.7,N
1700352095.6,286046998.5,N
1700352115.4,286047001.0,N
1700352135.3,286047000.4,N
1700352155.1,286046999.9,N
1700352175.9,286046999.9,N
1700352195.7,286047002.8,N
1700352215.5,286047002.8,N
1700352235.4,286047002.1,N
1700352255.2,286047002.3,N
1700352275.0,286047002.5,N
1700352275.9,286047002.5,N
1700352295.8,286047002.6,N
1700352315.6,286047002.5,N
1700352335.5,286047002.7,N
1700352355.3,286047002.3,N
1700352375.1,286047002.2,N
1700352395.9,286047002.8,N
1700352415.7,286047002.3,N
1700352435.5,286047002.6,N
1700352455.4,286047002.4,N
1700352475.2,286047002.2,N
1700352495.1,286047001.3,N
1700352496.0,286047001.3,N
1700352515.8,286047003.7,N
1700352535.6,286047004.0,N
1700352555.5,286047002.0,N
1700352575.3,286047002.6,N
1700352595.1,286047002.1,N
1700352615.9,286047002.7,N
1700352635.7,286047002.1,N
1700352655.6,286047002.1,N
1700352675.4,286047001.8,N
1700352695.2,286046999.7,N
1700352715.1,286047002.8,N
1700352716.0,286047002.8,Y
1700352735.8,286046996.5,P
1700352755.7,286046996.5,N
1700352775.5,286046999.2,N
1700352795.3,286046998.4,N
1700352815.2,286046998.3,N
1700352835.0,286046999.0,N
1700352835.9,286046999.0,N
1700352855.8,286046999.3,N
1700352875.6,286046999.5,N
1700352895.4,286046998.9,N
1700352915.3,286046999.3,N
1700352935.1,286046999.3,N
1700352955.9,286046999.2,N
1700352975.7,286046999.3,N
1700352995.5,286046999.5,N
1700353015.4,286046999.0,N
1700353035.2,286046999.1,N
1700353055.0,286046997.0,N
1700353055.9,286046997.0,N
1700353075.8,286046997.6,N
1700353095.6,286046999.5,N
1700353115.5,286046998.8,N
1700353135.3,286046998.4,N
1700353155.1,286047001.2,N
1700353175.9,286047001.1,N
1700353195.7,286047000.7,N
1700353215.5,286046998.2,N
1700353235.4,286046998.8,N
1700353255.2,286046998.7,N
1700353275.1,286046998.1,N
1700353276.0,286046998.1,N
1700353295.8,286046998.3,N
1700353315.7,286046998.5,N
1700353335.5,286046998.7,N
1700353355.3,286046998.9,N
1700353375.2,286046998.3,N
1700353395.0,286046998.2,N
1700353395.9,286046998.2,N
1700353415.7,286046998.2,N
1700353435.6,286046998.6,N
1700353455.4,286047000.7,N
1700353475.3,286047000.0,N
1700353495.1,286047000.4,N
1700353496.0,286047000.4,N
1700353515.8,286047000.0,N
1700353535.7,286047000.8,N
1700353555.5,286047000.7,N
1700353575.4,286046998.5,N
1700353595.2,286046998.4,N
1700353615.0,286046999.5,N
1700353615.9,286046999.5,N
1700353635.8,286046999.0,N
1700353655.6,286046999.6,N
1700353675.4,286046996.8,Y
1700353695.3,286046998.2,P
1700353715.1,286046998.7,N
1700353735.9,286046998.1,P
1700353755.7,286046998.8,N
1700353775.5,286046998.3,Y
1700353795.4,286047001.8,P
1700353815.2,286047003.8,N
1700353835.1,286047004.2,N
1700353836.0,286047004.2,N
1700353855.8,286047001.3,N
1700353875.6,286047004.4,N
1700353895.5,286047002.5,N
1700353915.3,286047002.4,N
1700353935.2,286047001.6,N
1700353955.9,286047001.4,N
1700353975.7,286047001.5,N
1700353995.6,286047002.2,N
1700354015.4,286047001.5,N
1700354035.3,286047001.4,N
1700354055.1,286047003.9,N
1700354056.0,286047003.9,N
1700354075.8,286047002.3,N
1700354095.7,286047002.3,N
1700354115.5,286047002.4,N
1700354135.3,286047002.2,N
1700354155.2,286047002.1,N
1700354175.0,286047001.9,N
1700354175.9,286047001.9,N
1700354195.8,286047004.4,Y
1700354215.6,286047001.1,P
1700354235.4,286047000.6,N
1700354255.3,286047000.8,N
1700354275.1,286047000.6,N
1700354295.9,286047002.4,Y
1700354315.7,286047000.9,P
1700354335.5,286047000.9,P
1700354355.4,286046998.1,P
1700354375.2,286047000.4,N
1700354395.0,286046999.7,N
1700354395.9,286046999.7,N
1700354415.8,286046999.8,N
1700354435.6,286047002.3,N
1700354455.5,286046999.8,N
1700354475.3,286047000.2,N
1700354495.1,286046999.7,N
1700354515.9,286047002.4,N
1700354535.7,286047002.4,N
1700354555.5,286047002.2,N
1700354575.4,286046999.9,N
1700354595.2,286046998.1,N
1700354615.1,286047001.1,N
1700354616.0,286047001.1,N
1700354635.8,286047000.4,N
1700354655.6,286047000.6,N
1700354675.5,286047001.0,N
1700354695.3,286047000.0,N
1700354715.1,286047000.0,N
1700354735.9,286047000.0,N
1700354755.7,286047000.2,N
1700354775.6,286047001.0,N
1700354795.4,286046998.5,N
1700354815.2,286046998.1,N
1700354835.1,286046999.0,N
1700354836.0,286046999.0,N
1700354855.8,286046998.3,N
1700354875.7,286047001.0,N
1700354895.5,286047001.1,N
1700354915.3,286046998.1,N
1700354935.2,286046998.6,N
1700354955.0,286047000.9,N
1700354955.9,286047000.9,N
1700354975.8,286047000.4,N
1700354995.6,286047000.4,N
1700355015.4,286047000.3,N
1700355035.3,286046999.7,N
1700355055.1,286047000.4,N
1700355075.9,286047000.9,N
1700355095.7,286047001.0,N
1700355115.6,286047001.1,N
1700355135.4,286046998.2,N
1700355155.2,286046999.0,N
1700355175.1,286046998.4,N
1700355176.0,286046998.4,N
1700355195.8,286047001.2,N
1700355215.7,286047001.2,N
1700355235.5,286046998.4,N
1700355255.3,286047001.2,N
1700355275.2,286047002.7,N
1700355295.0,286046999.9,N
1700355295.9,286046999.9,N
1700355315.8,286047002.5,N
1700355335.6,286047002.8,N
1700355355.4,286047000.2,N
1700355375.3,286046999.7,N
1700355395.1,286047002.1,N
1700355415.9,286046999.8,N
1700355435.7,286047002.3,N
1700355455.5,286047002.6,N
1700355475.4,286047002.8,N
1700355495.2,286047002.6,N
1700355515.0,286047002.4,N
1700355515.9,286047002.4,N
1700355535.8,286047000.4,N
1700355555.6,286046998.1,N
1700355575.5,286046999.9,N
1700355595.3,286047000.0,N
